Volver al catálogo

CAIYUN GUANGXE 01

ActivoCienciaSSO
NORAD 69540·PAYLOAD·🇨🇳 China
Este nombre de satélite aún no ha sido confirmado por fuentes oficiales.

Lanzado Jun 15, 2026 desde Jiuquan Satellite Launch Center

Loading…

Próximos Pases (próximas 24 horas)

TLE

ActualizadoSource: Space-Track

Época: Sep 14, 2026, 11:11 UTC

1 69540U 26134C   26257.46633989  .00003722  00000-0  23763-3 0  9998
2 69540  97.6917 327.9255 0017733 337.4093  22.6353 15.09175629 13772

Sigue CAIYUN GUANGXE 01 en tiempo real con AllMySat

Download on the App Store